{"data":{"norad_id":63319,"intl_designator":"2025-057N","name":"STARLINK-11588 [DTC]","alt_names":[],"object_type":"PAYLOAD","status":"ACTIVE","operator":null,"country":"US","launch_date":"2025-03-18","launch_site_code":"AFETR","launch_vehicle":null,"mission":null,"orbit_class":"UNKNOWN","rcs_meters":null,"size_class":null,"mass_kg":null,"dimensions":null,"purposes":["comms"],"wikipedia_slug":null,"has_3d_model":false,"image_url":null,"decayed_at":null,"tle_current":{"epoch":"2026-05-24T10:45:27.787392Z","epoch_age_seconds":112971,"freshness":"FRESH","line1":"1 63319U 25057N   26144.44823828  .00152877  00000+0  11725-2 0  9994","line2":"2 63319  43.0006 167.7745 0001373 255.6769 104.3946 15.70853433 69098","mean_motion":15.70853433,"eccentricity":0.0001373,"inclination_deg":43.0006,"raan_deg":167.7745,"arg_perigee_deg":255.6769,"mean_anomaly_deg":104.3946,"bstar":0.0011725,"rev_number":6909,"period_min":91.669914566753,"perigee_km":355.53200810355,"apogee_km":357.38132752473,"semimajor_km":6734.5936678141,"source":"CELESTRAK","updated_at":"2026-05-25T13:38:19.958415Z"}}}